| time (UTC) | temp F | wind direction | speed knots | gust knots | rain 1hr in | rain 24hr in | rain mn in | humidity % | barometer mb |
| 20260504202410 | 60 | 45 | 0.0 | 1.7 | 0.00 | 0.00 | 0.00 | 63 | 1015.4 |
| 20260504201724 | 60 | 0 | 0.0 | 0.0 | 0.00 | 0.00 | 0.00 | 63 | 1015.4 |
| 20260504200610 | 60 | 0 | 0.0 | 0.0 | 0.00 | 0.00 | 0.00 | 61 | 1015.4 |
| 20260504195710 | 60 | 0 | 0.0 | 0.0 | 0.00 | 0.00 | 0.00 | 61 | 1015.4 |
| 20260504195021 | 61 | 0 | 0.0 | 0.0 | 0.00 | 0.00 | 0.00 | 60 | 1015.3 |
| 20260504194123 | 61 | 0 | 0.0 | 0.0 | 0.00 | 0.00 | 0.00 | 59 | 1015.3 |
| 20260504193220 | 61 | 0 | 0.0 | 0.0 | 0.00 | 0.00 | 0.00 | 58 | 1015.2 |
| 20260504192110 | 61 | 0 | 0.0 | 0.0 | 0.00 | 0.00 | 0.00 | 55 | 1015.1 |
| 20260504191420 | 62 | 0 | 0.0 | 0.0 | 0.00 | 0.00 | 0.00 | 53 | 1015.1 |
| 20260504190522 | 63 | 0 | 0.0 | 0.0 | 0.00 | 0.00 | 0.00 | 51 | 1015.0 |
| 20260504185410 | 64 | 0 | 0.0 | 0.0 | 0.00 | 0.00 | 0.00 | 50 | 1014.9 |
| 20260504184510 | 64 | 0 | 0.0 | 0.0 | 0.00 | 0.00 | 0.00 | 48 | 1014.9 |
| 20260504183819 | 65 | 0 | 0.0 | 0.0 | 0.00 | 0.00 | 0.00 | 47 | 1014.9 |
| 20260504182710 | 66 | 167 | 0.0 | 2.6 | 0.00 | 0.00 | 0.00 | 45 | 1014.8 |
| 20260504182024 | 66 | 144 | 0.0 | 2.6 | 0.00 | 0.00 | 0.00 | 44 | 1014.8 |
| 20260504180910 | 67 | 0 | 0.0 | 0.0 | 0.00 | 0.00 | 0.00 | 43 | 1014.7 |
| 20260504180224 | 67 | 149 | 0.0 | 3.5 | 0.00 | 0.00 | 0.00 | 43 | 1014.6 |
| 20260504175321 | 68 | 144 | 0.0 | 5.2 | 0.00 | 0.00 | 0.00 | 43 | 1014.6 |
| 20260504174210 | 68 | 126 | 0.0 | 4.3 | 0.00 | 0.00 | 0.00 | 43 | 1014.5 |
| 20260504173521 | 69 | 155 | 0.0 | 4.3 | 0.00 | 0.00 | 0.00 | 43 | 1014.5 |
| 20260504172623 | 69 | 166 | 0.9 | 7.0 | 0.00 | 0.00 | 0.00 | 42 | 1014.4 |
| 20260504171510 | 69 | 163 | 0.9 | 6.1 | 0.00 | 0.00 | 0.00 | 42 | 1014.5 |
| 20260504170823 | 69 | 177 | 2.6 | 6.1 | 0.00 | 0.00 | 0.00 | 42 | 1014.5 |
| 20260504160310 | 71 | 145 | 1.7 | 7.0 | 0.00 | 0.00 | 0.00 | 41 | 1014.6 |
| 20260504150910 | 75 | 175 | 1.7 | 7.0 | 0.00 | 0.00 | 0.00 | 42 | 1014.7 |
| 20260504140610 | 78 | 143 | 0.0 | 3.5 | 0.00 | 0.00 | 0.00 | 26 | 1014.9 |
| 20260504130521 | 76 | 97 | 0.9 | 7.0 | 0.00 | 0.00 | 0.00 | 33 | 1015.4 |
| 20260504100523 | 74 | 13 | 2.6 | 7.0 | 0.00 | 0.00 | 0.00 | 31 | 1016.7 |
| 20260504081510 | 70 | 31 | 1.7 | 4.3 | 0.00 | 0.00 | 0.00 | 36 | 1017.1 |
| 20260504080824 | 69 | 307 | 1.7 | 3.5 | 0.00 | 0.00 | 0.00 | 37 | 1017.2 |
| 20260504050610 | 54 | 15 | 0.0 | 1.7 | 0.00 | 0.00 | 0.00 | 68 | 1016.4 |
| 20260504045710 | 53 | 12 | 0.9 | 3.5 | 0.00 | 0.00 | 0.00 | 68 | 1016.3 |
| 20260504045020 | 53 | 9 | 0.9 | 3.5 | 0.00 | 0.00 | 0.00 | 69 | 1016.1 |
| 20260504044123 | 53 | 16 | 0.9 | 2.6 | 0.00 | 0.00 | 0.00 | 69 | 1016.1 |
| 20260504043010 | 52 | 11 | 0.9 | 3.5 | 0.00 | 0.00 | 0.00 | 70 | 1016.0 |
| 20260504042322 | 52 | 12 | 0.9 | 3.5 | 0.00 | 0.00 | 0.00 | 69 | 1016.0 |
| 20260504041210 | 52 | 359 | 0.9 | 3.5 | 0.00 | 0.00 | 0.00 | 69 | 1016.0 |
| 20260504040522 | 52 | 12 | 0.0 | 1.7 | 0.00 | 0.00 | 0.00 | 69 | 1016.0 |
| 20260504035624 | 52 | 12 | 0.0 | 2.6 | 0.00 | 0.00 | 0.00 | 69 | 1016.0 |
| 20260504034722 | 53 | 347 | 0.0 | 2.6 | 0.00 | 0.00 | 0.00 | 69 | 1016.0 |
| 20260504033824 | 53 | 350 | 0.0 | 2.6 | 0.00 | 0.00 | 0.00 | 69 | 1016.0 |
| 20260504032710 | 53 | 360 | 0.0 | 1.7 | 0.00 | 0.00 | 0.00 | 68 | 1016.0 |
| 20260504031810 | 53 | 10 | 0.0 | 1.7 | 0.00 | 0.00 | 0.00 | 68 | 1016.0 |
| 20260504031121 | 53 | 3 | 0.0 | 2.6 | 0.00 | 0.00 | 0.00 | 68 | 1016.0 |
| 20260504030010 | 53 | 14 | 0.0 | 2.6 | 0.00 | 0.00 | 0.00 | 68 | 1015.9 |
| 20260504025321 | 53 | 30 | 0.0 | 2.6 | 0.00 | 0.00 | 0.00 | 68 | 1016.0 |
| 20260504024210 | 53 | 0 | 0.0 | 0.0 | 0.00 | 0.00 | 0.00 | 67 | 1016.1 |
| 20260504023310 | 54 | 0 | 0.0 | 0.0 | 0.00 | 0.00 | 0.00 | 67 | 1016.2 |
| 20260504022623 | 54 | 8 | 0.0 | 2.6 | 0.00 | 0.00 | 0.00 | 67 | 1016.0 |
| 20260504021510 | 54 | 7 | 0.0 | 2.6 | 0.00 | 0.00 | 0.00 | 66 | 1016.1 |
| 20260504020610 | 54 | 0 | 0.0 | 0.0 | 0.00 | 0.00 | 0.00 | 66 | 1016.0 |
| 20260504015710 | 54 | 345 | 0.0 | 2.6 | 0.00 | 0.00 | 0.00 | 66 | 1016.0 |
| 20260504015022 | 54 | 2 | 0.0 | 2.6 | 0.00 | 0.00 | 0.00 | 66 | 1016.0 |
| 20260504013910 | 55 | 325 | 0.0 | 1.7 | 0.00 | 0.00 | 0.00 | 66 | 1015.9 |
| 20260504013010 | 55 | 360 | 0.0 | 1.7 | 0.00 | 0.00 | 0.00 | 66 | 1016.0 |
| 20260504012324 | 55 | 360 | 0.0 | 0.9 | 0.00 | 0.00 | 0.00 | 66 | 1016.0 |
| 20260504011421 | 55 | 0 | 0.0 | 0.0 | 0.00 | 0.00 | 0.00 | 66 | 1016.1 |
| 20260504010310 | 55 | 0 | 0.0 | 0.0 | 0.00 | 0.00 | 0.00 | 66 | 1016.0 |
| 20260504005621 | 55 | 0 | 0.0 | 0.0 | 0.00 | 0.00 | 0.00 | 66 | 1016.1 |
| 20260504004723 | 55 | 0 | 0.0 | 0.0 | 0.00 | 0.00 | 0.00 | 66 | 1016.1 |
| 20260504003610 | 55 | 90 | 0.0 | 1.7 | 0.00 | 0.00 | 0.00 | 66 | 1016.1 |
| 20260504002923 | 55 | 90 | 0.0 | 0.9 | 0.00 | 0.00 | 0.00 | 66 | 1016.2 |
| 20260504002020 | 55 | 0 | 0.0 | 0.0 | 0.00 | 0.00 | 0.00 | 66 | 1016.3 |
| 20260504001123 | 56 | 0 | 0.0 | 0.0 | 0.00 | 0.00 | 0.00 | 66 | 1016.4 |
| 20260504000010 | 55 | 0 | 0.0 | 0.0 | 0.00 | 0.00 | 0.00 | 68 | 1016.3 |
| 20260503235110 | 54 | 90 | 0.0 | 0.9 | 0.00 | 0.00 | 0.00 | 68 | 1016.3 |
| 20260503234210 | 54 | 0 | 0.0 | 0.0 | 0.00 | 0.00 | 0.00 | 67 | 1016.4 |
| 20260503233522 | 54 | 0 | 0.0 | 0.0 | 0.00 | 0.00 | 0.00 | 67 | 1016.4 |
| 20260503232410 | 55 | 0 | 0.0 | 0.0 | 0.00 | 0.00 | 0.00 | 66 | 1016.5 |
| 20260503231722 | 55 | 0 | 0.0 | 0.0 | 0.00 | 0.00 | 0.00 | 66 | 1016.5 |
| 20260503230819 | 56 | 0 | 0.0 | 0.0 | 0.00 | 0.00 | 0.00 | 66 | 1016.6 |
| 20260503225710 | 56 | 0 | 0.0 | 0.0 | 0.00 | 0.00 | 0.00 | 65 | 1016.7 |
| 20260503224810 | 56 | 0 | 0.0 | 0.0 | 0.00 | 0.00 | 0.00 | 64 | 1016.6 |
| 20260503224121 | 56 | 0 | 0.0 | 0.0 | 0.00 | 0.00 | 0.00 | 65 | 1016.6 |
| 20260503223010 | 55 | 0 | 0.0 | 0.0 | 0.00 | 0.00 | 0.00 | 64 | 1016.6 |
| 20260503222110 | 56 | 0 | 0.0 | 0.0 | 0.00 | 0.00 | 0.00 | 63 | 1016.6 |
| 20260503221210 | 56 | 0 | 0.0 | 0.0 | 0.00 | 0.00 | 0.00 | 62 | 1016.6 |
| 20260503220521 | 56 | 0 | 0.0 | 0.0 | 0.00 | 0.00 | 0.00 | 61 | 1016.5 |
| 20260503215623 | 56 | 0 | 0.0 | 0.0 | 0.00 | 0.00 | 0.00 | 60 | 1016.4 |
| 20260503214510 | 57 | 0 | 0.0 | 0.0 | 0.00 | 0.00 | 0.00 | 59 | 1016.5 |
| 20260503213610 | 58 | 0 | 0.0 | 0.0 | 0.00 | 0.00 | 0.00 | 58 | 1016.5 |
| 20260503212920 | 58 | 0 | 0.0 | 0.0 | 0.00 | 0.00 | 0.00 | 58 | 1016.4 |
| 20260503211810 | 58 | 0 | 0.0 | 0.0 | 0.00 | 0.00 | 0.00 | 57 | 1016.4 |
| 20260503211120 | 58 | 0 | 0.0 | 0.0 | 0.00 | 0.00 | 0.00 | 56 | 1016.4 |
| 20260503210222 | 58 | 0 | 0.0 | 0.0 | 0.00 | 0.00 | 0.00 | 56 | 1016.3 |
| 20260503205319 | 58 | 0 | 0.0 | 0.0 | 0.00 | 0.00 | 0.00 | 55 | 1016.3 |
| 20260503204422 | 58 | 0 | 0.0 | 0.0 | 0.00 | 0.00 | 0.00 | 54 | 1016.3 |
| 20260503203310 | 59 | 0 | 0.0 | 0.0 | 0.00 | 0.00 | 0.00 | 54 | 1016.4 |